This demonstration page uses our WeatherBlox Daily Observations layout. Learn more.

Left ArrowRight Arrow

39.51506, -84.39828

Hourly Observations for August 9, 2021

Temp ( °F °C ) Dew Point ( °F °C ) Humidity (%) Winds ( mph kmh ) Pressure ( in mb ) Visibility ( mi km ) Precip ( " mm )
12:15 am 00:15 Clear 71 21.8 71 21.6 99 99 N N/A 30.03 1017 10 16 N/A
12:35 am 00:35 Clear 70 21 70 21 100 100 N N/A 30.03 1017 10 16 N/A
12:55 am 00:55 Clear 70 21 N/A N/A N N/A 30.03 1017 10 16 N/A
1:15 am 01:15 Clear 70 21 N/A N/A N N/A 30.02 1017 10 16 N/A
1:35 am 01:35 Clear 70 21 N/A N/A N N/A 30.02 1017 10 16 N/A
1:55 am 01:55 Clear 70 21 N/A N/A N N/A 30.01 1016 10 16 N/A
2:15 am 02:15 Clear 70 21 N/A N/A N N/A 30.01 1016 10 16 N/A
2:35 am 02:35 Clear 68 20 N/A N/A N N/A 30.01 1016 10 16 N/A
2:55 am 02:55 Clear 70 21 N/A N/A N N/A 30.01 1016 10 16 N/A
3:15 am 03:15 Clear 70 21 N/A N/A N N/A 30.00 1016 10 16 N/A
3:35 am 03:35 Clear 68 20 N/A N/A N N/A 30.00 1016 7 11 N/A
3:55 am 03:55 Clear 68 20 N/A N/A N N/A 30.00 1016 7 11 N/A
4:15 am 04:15 Clear 68 20 N/A N/A N N/A 30.00 1016 7 11 N/A
4:35 am 04:35 Hazy 68 20 N/A N/A N N/A 30.00 1016 5 8 N/A
4:55 am 04:55 Clear 68 20 N/A N/A N N/A 30.00 1016 7 11 N/A
5:15 am 05:15 Clear 68 20 N/A N/A N N/A 30.01 1016 10 16 N/A
5:35 am 05:35 Clear 68 20 N/A N/A N N/A 30.01 1016 10 16 N/A
5:55 am 05:55 Clear 68 20 N/A N/A N N/A 30.02 1017 7 11 N/A
6:15 am 06:15 Clear 66 19 N/A N/A N N/A 30.03 1017 7 11 N/A
6:35 am 06:35 Hazy 68 20 N/A N/A N N/A 30.03 1017 7 11 N/A
6:55 am 06:55 Hazy 68 20 N/A N/A N N/A 30.03 1017 7 11 N/A
7:15 am 07:15 Hazy 68 20 N/A N/A N N/A 30.03 1017 7 11 N/A
7:35 am 07:35 Sunny 68 20 N/A N/A N N/A 30.03 1017 7 11 N/A
7:55 am 07:55 Sunny 73 22.9 71 21.7 93 93 S 6 9 30.03 1017 10 16 N/A
8:15 am 08:15 Sunny 74 23.2 71 21.6 91 91 S 5 7 30.04 1017 10 16 N/A
8:35 am 08:35 Sunny 74 23.6 71 21.8 90 90 S 5 7 30.04 1017 10 16 N/A
8:55 am 08:55 Partly Cloudy with Mist and Fog 75 24.1 71 21.9 88 88 S 6 9 30.05 1017 7 11 N/A
9:15 am 09:15 Partly Cloudy 77 24.8 71 21.8 83 83 S 9 15 30.03 1017 10 16 N/A
9:35 am 09:35 Sunny 77 25.2 71 21.8 82 82 S 8 13 30.03 1017 10 16 N/A
9:55 am 09:55 Sunny 78 25.7 71 21.8 79 79 S 9 15 30.02 1017 10 16 N/A
10:15 am 10:15 Sunny 81 27.3 72 22.2 74 74 S 8 13 30.02 1017 10 16 N/A
10:35 am 10:35 Sunny 83 28.1 72 22.1 70 70 SSW 10 17 30.01 1016 10 16 N/A
10:55 am 10:55 Mostly Cloudy 82 27.7 71 21.8 70 70 SSW 14 22 30.02 1016 10 16 N/A
11:15 am 11:15 Partly Cloudy 82 27.5 71 21.9 72 72 SSW 14 22 30.01 1016 10 16 N/A
11:35 am 11:35 Partly Cloudy 81 27.2 71 21.9 73 73 SW 14 22 30.02 1017 10 16 N/A
11:55 am 11:55 Mostly Cloudy 81 27 71 21.7 73 73 S 12 19 30.02 1017 10 16 N/A
12:15 pm 12:15 Cloudy 80 26.7 71 21.9 75 75 SSW 12 19 30.02 1017 10 16 N/A
12:35 pm 12:35 Cloudy with Heavy Rain 76 24.6 73 23 91 91 W 10 17 30.02 1017 5 8 0.05 1.27
12:55 pm 12:55 Partly Cloudy with Light Rain 73 23 73 23 100 100 WSW 8 13 30.03 1017 7 11 0.17 4.32
1:15 pm 13:15 Mostly Cloudy 75 23.9 74 23.6 98 98 SSW 7 11 30.03 1017 7 11 0.02 0.51
1:35 pm 13:35 Partly Cloudy 76 24.7 76 24.2 97 97 S 8 13 30.01 1016 7 11 0.02 0.51
1:55 pm 13:55 Partly Cloudy 77 25.2 75 23.9 93 93 S 8 13 30.00 1016 7 11 0.02 0.51
2:15 pm 14:15 Partly Cloudy 78 25.4 75 23.7 90 90 S 8 13 29.99 1016 7 11 N/A
2:35 pm 14:35 Mostly Cloudy with Mist and Fog 79 26.1 75 24.1 89 89 WSW 7 11 29.99 1016 7 11 N/A
2:55 pm 14:55 Cloudy 80 26.4 73 22.9 81 81 SW 13 20 29.99 1016 10 16 N/A
3:15 pm 15:15 Cloudy 80 26.4 71 21.9 76 76 SW 13 20 29.99 1016 10 16 N/A
3:35 pm 15:35 Mostly Cloudy 78 25.6 74 23.2 87 87 SSW 13 20 29.98 1015 10 16 N/A
3:55 pm 15:55 Mostly Cloudy 78 25.8 73 22.9 84 84 SW 13 20 29.97 1015 10 16 N/A
4:15 pm 16:15 Cloudy 78 25.7 72 22.2 81 81 SW 13 20 29.97 1015 10 16 N/A
4:35 pm 16:35 Cloudy 77 25.2 72 22.4 85 85 WSW 10 17 29.97 1015 10 16 N/A
4:55 pm 16:55 Cloudy 78 25.8 72 22.3 81 81 SSW 12 19 29.97 1015 10 16 N/A
5:15 pm 17:15 Mostly Cloudy 79 26 72 22.2 80 80 SSW 13 20 29.97 1015 10 16 N/A
5:35 pm 17:35 Mostly Cloudy 78 25.8 72 22 80 80 SW 13 20 29.98 1015 10 16 N/A
5:55 pm 17:55 Mostly Cloudy 78 25.8 72 22.1 80 80 SSW 12 19 29.98 1015 10 16 N/A
6:15 pm 18:15 Mostly Cloudy 78 25.3 72 22 82 82 S 12 19 29.98 1015 10 16 N/A
6:35 pm 18:35 Partly Cloudy 77 25.2 72 22.1 83 83 S 14 22 29.98 1015 10 16 N/A
6:55 pm 18:55 Partly Cloudy 77 24.9 71 21.9 83 83 S 10 17 29.98 1015 10 16 N/A
7:15 pm 19:15 Sunny 76 24.7 71 21.8 84 84 SSW 14 22 29.98 1015 10 16 N/A
7:35 pm 19:35 Partly Cloudy 76 24.5 71 21.8 85 85 SSW 9 15 29.99 1016 10 16 N/A
7:55 pm 19:55 Partly Cloudy 76 24.3 71 21.6 85 85 SSW 13 20 29.99 1016 10 16 N/A
8:15 pm 20:15 Partly Cloudy 76 24.2 71 21.7 86 86 SSW 13 20 29.99 1016 10 16 N/A
8:35 pm 20:35 Mostly Cloudy 75 24.1 71 21.8 87 87 SSW 8 13 30.01 1016 10 16 N/A
8:55 pm 20:55 Partly Cloudy 75 23.8 71 21.8 89 89 SSW 7 11 30.01 1016 10 16 N/A
9:15 pm 21:15 Partly Cloudy 74 23.6 71 21.8 90 90 S 7 11 30.01 1016 10 16 N/A
9:35 pm 21:35 Clear 74 23.3 71 21.7 91 91 SSW 10 17 30.01 1016 10 16 N/A
9:55 pm 21:55 Clear 74 23.2 71 21.8 92 92 SSW 12 19 30.02 1016 10 16 N/A
10:15 pm 22:15 Clear 73 23 71 21.8 93 93 S 9 15 30.02 1017 10 16 N/A
10:35 pm 22:35 Clear 73 22.9 72 22 95 95 S 8 13 30.02 1017 10 16 N/A
10:55 pm 22:55 Clear 73 22.8 72 22.2 96 96 S 7 11 30.02 1017 10 16 N/A
11:15 pm 23:15 Clear 73 22.8 72 22.3 97 97 SSW 8 13 30.03 1017 10 16 N/A
11:35 pm 23:35 Clear 73 22.8 72 22.4 98 98 SSW 9 15 30.03 1017 10 16 N/A
11:55 pm 23:55 Clear 73 22.6 72 22.3 98 98 SSW 8 13 30.03 1017 10 16 N/A

Powered by AerisWeather